Location: Wellington
(37.9145°N, 83.5119°W)
Time: 06:33:43
(UTC+00:00)

Daily predictions for brighter satellites

Satellite Brightness Start Highest point End
(mag) Time Altitude Azimuth Time Altitude Azimuth Time Altitude Azimuth
COSMO-SKYMED 1 3.9 22:55:37 10° NE 22:58:24 17° E 23:01:12 10° SE
Cosmos 1833 Rocket 4.5 22:58:13 10° NNE 22:59:59 11° NE 23:01:44 10° ENE
Cosmos 1908 Rocket 3.9 22:56:12 10° SSE 23:00:20 43° E 23:04:30 10° NNE
SMAP 3.0 22:55:43 10° SSE 23:00:21 75° ENE 23:05:01 10° N
Cosmos 1867 3.7 22:55:58 10° SSW 23:01:24 87° WNW 23:06:53 10° NNE
Iridium 4 Rocket 3.6 23:01:55 10° S 23:07:33 85° E 23:12:48 10° N
Cosmos 1603 3.7 23:05:15 10° NNW 23:10:54 65° ENE 23:16:29 10° SSE
Cosmos 2221 Rocket 3.8 23:07:18 10° N 23:11:39 46° E 23:15:55 10° SSE
Delta 2 Rocket 3.9 23:07:57 10° WSW 23:11:48 44° SSE 23:15:13 12° E
IRS-1C 4.1 23:07:15 10° SSE 23:12:33 82° ENE 23:17:54 10° NNW
Cosmos 1459 Rocket 4.1 23:06:28 10° S 23:12:39 85° W 23:18:58 10° N
Cosmos 1864 Rocket 4.4 23:07:19 10° S 23:13:22 72° E 23:19:30 10° N
Landsat 7 3.7 23:10:35 10° SSE 23:15:12 75° ENE 23:19:52 10° N
Cosmos 1441 Rocket 4.2 23:12:48 10° NNE 23:15:18 19° ENE 23:17:47 10° ESE
BREEZE-M DEB (TANK) 2.4 23:14:25 10° SW 23:16:30 52° SE 23:19:53 13° ENE
Cosmos 1943 4.2 23:11:31 10° NNW 23:16:58 52° WSW 23:22:25 10° S
Cosmos 1302 Rocket 3.9 23:15:43 10° NNW 23:20:57 81° ENE 23:26:11 10° SSE
Cosmos 1725 Rocket 4.0 23:16:26 10° S 23:22:37 77° E 23:28:54 10° N
CZ-2D R/B 3.4 23:23:20 10° S 23:26:28 59° W 23:29:36 10° NNW
AQUARIUS 4.0 23:22:06 10° SSE 23:26:29 81° ENE 23:30:55 10° N
Cosmos 1340 Rocket 4.0 23:24:07 10° SSW 23:27:47 44° WNW 23:31:30 10° N
NOSS 3-4 (A) 4.2 23:23:00 10° NNW 23:29:42 46° NE 23:37:24 10° ESE
NOSS 3-4 (C) 4.2 23:23:05 10° NNW 23:29:46 46° NE 23:37:26 10° ESE
Cosmos 1802 Rocket 4.2 23:23:34 10° S 23:29:57 83° W 23:36:25 10° N
Cosmos 2233 Rocket 4.0 23:28:00 10° S 23:34:08 64° E 23:40:22 10° NNE
PSLV R/B 4.0 23:34:31 10° SE 23:38:13 35° ENE 23:41:56 10° N
Cosmos 1992 Rocket 3.9 23:34:20 10° NNW 23:39:30 63° ENE 23:44:37 10° SSE
Helios 1A Rocket 2.3 23:39:30 10° NNE 23:42:52 73° ESE 23:46:14 10° S
SL-08 R/B 4.5 23:38:53 10° S 23:45:03 87° W 23:51:11 10° N
Cosmos 1269 Rocket 4.2 23:40:05 10° S 23:45:06 48° ESE 23:49:42 12° NNE
Cosmos 2278 Rocket 4.0 23:42:05 10° SE 23:43:17 13° ESE 23:43:17 13° ESE
Resurs 1-3 3.8 23:44:13 10° SE 23:48:16 43° ENE 23:52:21 10° N
Tsikada Rocket 4.0 23:45:12 10° N 23:51:37 70° E 23:57:58 10° SSE
ATLAS CENTAUR R/B 1.6 23:49:37 10° SW 23:53:00 52° WNW 23:55:18 19° NNE
CZ-4C R/B 3.4 23:49:25 10° WSW 23:53:03 28° NW 23:57:26 10° NNE
